THORAD AGENA D DEB, 6157

Orbit data source: Space-Track

THORAD AGENA D DEB, 6157 is space debris in SSO originally from a launch on Wed, 08 Apr 1970 UTC launched from the Air Force Western Test Range (AFWTR). Debris objects in space refer to the collection of defunct objects orbiting the Earth. Examples of debris include non-operational satellites, rocket bodies, and fragments generated from explosions, collisions, or faulty payload assembly.

Loading next visibility...
Identifier
6157, 1970-025MX
Orbit
SSO
Country
Flag of USUS
Related business
Manufacturer
Unknown
Mission
Spacecraft
Bus & Motor
Unknown
Mass
Unknown
Launch date (UTC)
1970-04-08 (56 years ago)
Launch vehicle
Unknown
Launch site
Air Force Western Test Range (AFWTR)
Object type
Payload
Rocket body
Debris
Shape & HBR
Unknown shape, 0.1 m
Radar Cross Section
Small (<0.1 m²)

Expand to show TLE details & history
Last TLE update: 6 hours ago

TLE from 6 hours ago
0 THORAD AGENA D DEB
1  6157U 70025MX  25300.18214488  .00004591  00000-0  21853-2 0  9999
2  6157  99.8838  92.5602 0013072 304.8550  55.1393 14.19879622812835
Epoch: 2025-10-27T04:22Z
TLE epoch observation values (Epoch: 2025-10-27T04:22:17.317Z)
Latitude
-0°
Longitude
-8.79962°
Altitude
823.259 km
Speed
7.444 km/s
True Right ascension
06h 10m 14s
True Declination
0° 00' 00"
Sunlit
Object was in full shadow at epoch
Visualization orbit readout
Latitude
Unknown
Longitude
Unknown
Altitude
Unknown
Speed
Unknown
Apparent Right ascension
Unknown
Apparent Declination
Unknown
Sunlit
N/A
Visualization observer readout
Local Sidereal Time
06:06:21
Azimuth
Unknown
Elevation
Unknown
Doppler factor
Unknown
Orbital elements
Apogee altitude
832.392 km
Perigee altitude
813.565 km
Semi-major axis
7,201.116 km
Eccentricity
0.00131
Inclination
99.8838°
RAAN
92.5602°
Arg. of periapsis
304.855°
True anomaly
55.26233°
Mean anomaly
55.1393°
Eccentric anomaly
55.2008°
Mean motion
3.55176 °/min
Orbital period
101.36 mins
BSTAR
0.0021853
Loading maneuver chart data...
Computing Atmospheric mass density...

Documentation

Showing up to 5 results
|